Probability
44 48 54 58 56 51 43 36 32 30 24 17 11 8 7 7 7 6 4 2 3 2 1 0 0 0 0 0 0 0 0 0 0 0 0 0 0 0 0 0 0 0 0
47 50 55 58 57 50 41 34 30 26 21 16 11 8 6 7 7 5 3 2 3 2 1 0 0 0 0 0 0 0 0 0 0 0 0 0 0 0 0 0 0 0 0
48 51 54 54 52 45 37 30 25 21 17 14 11 8 5 5 5 4 2 2 2 2 1 0 0 0 0 0 0 0 0 0 0 0 0 0 0 0 0 0 0 0 0
40 44 48 46 42 37 30 24 22 20 16 13 11 8 4 4 3 2 3 2 1 2 2 1 0 0 0 0 0 0 0 0 0 0 0 0 0 0 0 0 0 0 0
30 34 38 37 34 29 23 19 19 20 16 12 10 7 5 3 2 2 3 1 1 2 3 2 0 0 0 0 0 0 0 0 0 0 0 0 0 0 0 0 0 0 0
26 27 28 28 27 23 18 15 16 17 15 11 9 8 5 2 1 1 1 1 1 2 2 1 0 0 0 0 0 0 0 0 0 0 0 0 0 0 0 0 0 0 0
23 23 23 24 24 20 14 12 12 12 12 11 10 8 5 2 1 0 1 1 2 2 1 0 0 0 0 0 1 1 0 0 0 0 0 0 0 0 0 0 0 0 0
18 19 19 21 22 17 12 10 9 10 12 12 11 8 5 2 1 0 1 2 2 1 0 0 0 0 0 1 2 2 1 1 1 0 0 0 0 0 0 0 0 0 0
13 15 17 18 18 14 11 10 10 11 13 14 12 9 5 3 1 0 1 2 2 1 1 1 1 0 0 1 3 3 3 2 2 1 1 0 0 0 0 0 0 0 0
13 15 16 16 14 11 9 10 12 14 14 14 12 9 6 3 1 0 1 1 1 0 1 2 2 2 2 3 3 3 3 3 3 2 1 0 0 0 0 0 0 0 0
15 15 15 14 11 8 7 8 11 13 13 11 10 8 5 2 0 0 0 0 0 0 0 1 2 3 4 5 4 4 3 3 3 2 1 0 0 0 0 0 0 0 0
15 15 13 11 9 6 6 7 9 11 10 8 6 4 2 0 0 0 0 0 0 1 1 1 3 4 4 5 6 5 4 3 2 1 0 0 0 0 0 0 0 0 0
14 13 12 10 8 6 6 6 7 8 7 5 3 1 0 0 1 1 0 1 1 2 2 3 3 3 3 4 4 4 3 2 2 1 0 0 0 0 0 0 0 0 0
11 11 10 9 8 7 6 6 5 5 5 3 1 1 1 1 1 1 1 2 3 3 3 3 3 3 3 3 3 2 2 1 1 1 0 0 0 0 0 0 0 0 0
8 10 9 9 8 7 6 6 5 4 3 2 1 2 1 1 1 1 2 3 3 4 3 3 3 3 3 3 2 1 1 1 1 1 0 0 0 0 0 0 0 0 0
9 9 9 9 8 7 6 6 5 4 4 3 2 2 1 1 2 3 3 3 4 5 4 3 2 2 2 1 1 0 0 0 0 0 0 1 1 0 0 0 0 0 0
12 11 9 8 7 5 4 5 6 5 5 5 3 2 0 0 1 3 4 4 4 5 4 2 1 1 1 0 0 0 0 0 0 0 0 1 1 0 0 0 0 0 0
13 11 9 7 5 3 3 5 7 7 6 4 3 1 0 0 0 1 2 3 4 4 3 1 0 0 0 0 0 0 0 0 0 0 0 1 1 0 0 0 0 0 0
13 11 8 6 4 3 4 7 9 9 7 4 2 2 2 2 2 2 2 2 2 2 1 0 0 0 0 0 0 0 0 0 0 0 0 0 0 0 0 0 0 0 0
13 11 9 7 6 5 7 9 9 8 7 5 4 5 5 6 5 5 3 3 2 1 0 0 0 0 0 0 0 0 0 0 0 0 0 0 0 0 0 0 0 0 0
15 13 10 9 8 7 8 9 8 7 7 7 6 7 8 8 8 6 4 3 2 1 0 0 0 0 0 0 0 0 0 0 0 0 0 0 0 0 0 0 0 0 0
13 11 9 8 8 7 8 9 8 7 7 8 7 6 7 7 7 6 4 3 2 1 0 0 0 0 0 0 0 0 0 0 0 0 0 0 0 0 0 0 0 0 0
7 6 6 6 6 6 6 7 6 5 6 6 5 4 5 5 5 4 3 2 2 1 0 0 0 0 0 0 0 0 0 0 0 0 0 0 0 0 0 0 0 0 0
2 3 3 3 3 2 3 4 3 3 4 4 3 3 3 2 2 1 1 1 1 0 0 0 0 0 0 0 0 0 0 0 0 0 0 0 0 0 0 0 0 0 0
1 1 1 1 1 0 1 2 2 2 4 4 3 3 2 1 0 0 0 0 0 0 0 0 0 0 0 0 0 0 0 0 0 0 0 0 0 0 0 0 0 0 0
0 0 0 0 0 0 0 1 1 1 2 3 3 2 1 0 0 0 0 0 0 0 0 0 0 0 0 0 0 0 0 0 0 0 0 0 0 0 0 0 0 0 0
Wind_Speed
8 9 10 11 10 10 11 11 11 10 9 7 6 5 5 5 4 4 6 6 6 6 5 4 4 4 3 3 4 2 2 1 2 3 2 2 1 1 2 3 3 5 6
7 9 9 10 10 11 11 11 11 11 10 8 6 4 4 4 4 4 5 6 6 6 6 5 4 4 3 3 3 3 2 1 2 3 2 2 3 3 2 2 3 4 4
12 11 11 10 10 11 11 11 11 11 10 9 6 5 3 3 3 4 4 5 6 6 5 6 5 4 4 4 3 3 4 2 0 2 4 3 3 2 2 2 2 3 3
10 10 10 10 10 9 9 9 10 10 9 9 9 9 7 6 5 5 4 5 6 6 6 6 6 5 4 4 4 3 3 3 2 0 1 2 4 3 1 2 2 2 3
10 10 10 10 9 9 8 8 8 9 10 10 10 9 6 5 4 4 6 5 5 6 6 6 5 5 4 4 4 4 3 3 3 2 1 1 1 2 2 1 2 2 2
8 8 8 8 7 7 7 8 8 8 9 10 10 10 9 8 8 7 7 6 4 4 6 6 5 5 4 4 4 4 4 3 3 2 2 2 2 2 2 2 2 2 3
8 9 9 9 9 9 9 8 9 9 9 10 10 10 11 11 10 9 8 7 5 4 6 6 5 4 5 5 4 4 4 4 3 3 2 2 2 2 3 3 2 2 2
6 8 10 10 10 10 9 9 9 9 9 10 10 9 9 7 7 8 7 7 6 6 7 6 6 5 5 5 4 3 3 3 3 3 2 2 1 2 2 3 3 1 2
6 6 7 7 8 8 8 9 9 8 9 9 9 9 9 8 8 7 7 6 5 6 7 7 6 6 5 5 5 3 3 3 3 3 2 2 1 1 2 2 3 4 2
6 6 6 6 6 7 6 7 8 8 8 8 8 8 8 9 8 7 8 7 6 6 7 7 6 6 5 6 5 4 3 4 3 3 3 2 2 1 1 1 2 3 4
7 6 5 5 5 5 6 6 6 6 7 8 7 7 7 8 8 7 7 7 7 7 7 7 7 6 6 5 5 5 5 5 4 3 3 4 3 2 1 1 1 2 3
6 6 5 5 4 4 5 5 5 5 6 6 7 7 7 7 7 7 7 6 7 7 7 7 7 6 6 6 6 6 5 5 5 5 4 4 3 3 2 1 2 2 2
5 4 5 5 5 5 5 4 5 6 6 6 6 6 7 7 7 6 6 6 6 6 6 6 6 6 6 6 6 6 5 5 5 5 5 4 4 3 2 3 2 2 2
5 4 4 4 5 5 5 4 4 5 6 6 6 6 6 7 6 6 6 6 6 6 6 5 5 5 5 5 5 5 5 5 4 5 5 5 5 5 4 3 3 3 2
5 5 5 4 4 5 5 5 4 4 5 6 6 6 6 6 5 5 5 5 6 6 6 5 4 4 4 3 4 4 4 4 4 3 3 4 5 6 5 4 4 3 2
6 5 5 5 5 5 6 6 5 5 5 5 5 5 5 5 5 5 5 5 4 5 5 5 4 3 2 3 4 4 3 3 3 3 2 2 3 4 6 7 6 5 4
5 6 6 6 6 6 6 6 6 6 6 5 4 5 5 5 5 5 5 5 4 4 4 4 4 3 1 2 3 5 3 3 2 2 2 1 1 1 2 3 4 5 6
5 4 4 4 4 4 5 5 6 7 6 5 4 4 5 6 5 5 4 4 4 4 4 4 4 3 2 1 2 3 3 2 2 1 2 1 1 1 1 1 1 2 3
5 4 4 4 4 5 6 6 5 5 6 5 5 5 5 6 6 6 5 4 5 5 5 4 4 4 3 4 3 4 2 2 2 2 2 2 2 4 2 1 1 2 3
4 5 5 5 5 4 5 7 6 6 5 5 4 4 5 6 6 6 5 5 6 5 6 6 5 5 4 5 5 4 3 3 2 3 3 5 4 4 4 2 1 2 3
6 7 7 6 4 4 5 7 6 5 4 5 5 5 5 5 6 6 5 6 6 7 6 7 6 6 5 6 7 6 3 3 2 2 2 2 5 5 5 3 1 1 2
7 8 8 7 5 4 5 7 5 4 5 6 7 6 6 6 6 7 7 7 7 7 6 6 6 5 5 7 7 8 7 4 3 2 1 2 4 4 5 3 3 3 3
7 7 9 9 7 6 6 7 4 5 8 8 8 8 8 8 7 7 7 7 6 6 5 5 5 4 4 5 9 9 8 8 4 2 4 4 5 5 4 6 6 4 3
7 7 9 10 9 7 8 7 6 7 10 10 9 8 9 9 9 7 7 7 6 6 6 5 5 4 4 5 5 4 4 6 5 4 5 7 8 6 6 5 5 4 3
7 7 9 10 9 8 9 8 7 9 11 10 9 9 9 9 9 9 8 7 6 5 6 5 4 4 4 4 6 4 4 4 3 3 4 5 5 6 5 4 4 4 4
8 9 10 10 9 9 9 8 7 8 10 9 8 7 7 7 7 9 9 14 11 13 13 9 6 5 5 6 9 9 10 9 8 6 5 5 5 4 4 4 4 4 4
Wind_Direction
177 165 163 161 157 156 159 164 161 160 156 154 157 154 162 168 165 168 160 161 157 154 152 153 153 146 146 156 143 130 118 114 115 81 33 354 334 226 211 194 186 201 203
164 163 161 160 163 164 164 164 168 165 165 166 161 158 156 163 160 162 162 168 161 157 161 154 158 154 143 144 143 133 125 123 125 125 103 18 349 329 256 210 198 201 196
172 170 167 169 166 168 170 171 170 169 169 160 145 138 128 125 141 155 168 174 166 163 160 160 156 156 150 158 161 150 144 149 127 146 142 148 211 284 314 257 221 200 195
171 171 170 169 173 174 169 167 170 171 168 160 159 161 166 168 177 166 168 170 168 162 159 159 158 158 156 162 172 159 153 144 149 180 170 166 160 154 279 316 289 230 210
171 171 171 170 171 166 165 166 167 172 171 170 171 167 169 171 162 156 162 170 170 165 162 162 159 162 163 166 167 151 148 146 151 160 151 113 102 127 144 240 292 297 252
162 161 159 154 158 162 163 166 169 174 175 176 177 174 173 170 167 172 171 173 169 170 171 165 163 166 164 166 168 156 148 150 148 149 143 149 152 178 161 190 236 254 269
157 157 155 159 163 168 172 175 177 179 181 181 181 181 179 176 179 178 176 171 170 177 184 174 168 168 169 167 161 152 156 161 159 165 169 173 181 172 161 159 200 245 279
162 168 168 169 171 175 177 179 182 182 180 181 181 179 179 179 182 180 176 179 181 183 179 175 174 173 170 168 159 154 170 169 174 179 172 179 196 172 170 167 156 161 308
166 173 172 170 171 176 181 183 183 182 182 181 177 178 181 182 182 180 180 179 180 180 176 175 175 175 171 169 163 172 187 176 183 189 189 197 218 187 179 167 160 157 196
159 163 166 165 167 170 175 179 183 186 182 176 178 181 180 181 180 176 179 180 182 179 173 175 177 177 177 175 170 175 184 178 192 197 201 217 224 216 171 157 164 165 170
157 162 165 163 162 162 165 172 177 176 177 174 170 172 174 177 178 181 182 180 178 173 176 178 178 180 182 180 179 190 186 190 205 208 205 225 218 216 224 178 161 168 164
149 148 141 134 136 149 160 165 169 167 168 163 161 169 169 170 176 182 179 174 174 174 175 176 179 187 188 185 188 200 199 197 205 212 209 227 219 218 222 209 214 210 194
121 125 130 142 149 149 149 152 158 158 153 150 155 157 159 162 171 176 172 169 168 170 171 172 181 191 191 192 196 200 203 201 205 205 203 216 210 225 227 222 225 230 222
137 141 139 147 152 153 146 149 152 155 153 152 155 157 161 161 166 168 166 167 167 169 173 174 181 188 190 194 199 198 198 202 206 206 203 206 204 215 222 226 228 225 229
154 151 142 134 144 150 148 154 152 153 153 150 155 162 159 156 158 160 161 161 164 171 172 171 179 185 185 197 189 188 191 199 213 218 215 217 217 216 214 214 211 208 215
161 157 147 143 153 159 155 151 150 152 147 149 155 154 153 154 158 159 156 152 153 156 158 162 161 158 175 177 179 179 179 182 195 217 232 243 238 241 234 228 213 195 200
144 155 158 164 164 163 156 153 151 137 130 135 138 136 143 146 152 158 154 159 158 144 142 142 139 135 131 167 183 190 167 172 194 203 214 243 263 235 250 247 240 232 227
127 134 142 149 155 148 142 138 135 133 131 130 137 135 132 134 129 128 136 146 141 134 127 120 117 105 69 79 152 167 151 137 141 150 169 172 328 360 309 265 269 270 266
125 136 137 139 137 139 141 131 133 134 130 132 135 142 141 132 127 128 125 119 113 109 107 105 103 96 53 43 76 120 121 107 82 66 70 81 57 11 17 62 342 326 316
104 109 109 101 100 114 126 127 130 127 133 144 147 144 140 134 131 128 116 105 109 112 104 91 85 85 65 45 61 99 101 98 83 55 48 56 54 32 36 51 39 337 319
91 96 92 93 93 98 112 119 122 131 142 134 122 113 114 118 119 115 112 111 111 103 95 88 74 67 58 49 61 81 90 103 97 73 36 24 31 33 32 38 36 308 317
77 89 90 81 73 78 99 104 115 127 113 104 99 95 94 100 102 103 102 105 107 100 93 88 74 53 42 43 50 61 68 77 91 74 28 8 17 27 27 24 1 358 8
76 82 90 81 65 58 78 91 83 90 95 91 87 84 80 74 79 94 98 95 95 97 94 88 80 58 40 37 44 50 54 59 67 51 34 31 33 29 26 23 20 26 33
76 80 83 81 68 55 63 74 79 89 93 92 88 85 83 76 68 68 77 87 90 96 94 90 84 68 47 31 23 30 37 42 47 41 35 40 42 42 29 20 23 30 32
79 78 82 80 71 64 62 63 72 88 93 91 89 87 84 84 77 69 60 71 66 92 105 101 98 85 61 26 35 47 41 39 38 41 46 44 37 34 27 22 19 19 20
90 85 80 78 72 68 64 56 62 81 91 90 86 88 91 91 91 91 74 56 67 71 74 80 87 72 74 66 59 56 55 54 58 63 54 43 39 36 28 23 17 17 13